OPS 4682 DEB, 38446

Orbit data source: Space-Track

OPS 4682 DEB, 38446 is space debris in LEO originally from a launch on Sat, 03 Apr 1965 UTC launched from the Air Force Western Test Range (AFWTR). Debris objects in space refer to the collection of defunct objects orbiting the Earth. Examples of debris include non-operational satellites, rocket bodies, and fragments generated from explosions, collisions, or faulty payload assembly.

Loading next visibility...
Identifier
38446, 1965-027FB
Orbit
LEO
Country
Flag of USUS
Related business
Manufacturer
Unknown
Mission
Spacecraft
Bus & Motor
Unknown
Mass
Unknown
Launch date (UTC)
1965-04-03 (61 years ago)
Launch vehicle
Unknown
Launch site
Air Force Western Test Range (AFWTR)
Object type
Payload
Rocket body
Debris
Shape & HBR
Unknown shape, 0.1 m
Radar Cross Section
Small (<0.1 m²)

Expand to show TLE details & history
Last TLE update: 3 days ago

TLE from 3 days ago
0 OPS 4682 DEB
1 38446U 65027FB  26205.74536633  .00000363  00000-0  11592-2 0  9999
2 38446  90.2733  28.8162 0014806 316.5185  43.4770 13.01379889592163
Epoch: 2026-07-24T17:53Z
TLE epoch observation values (Epoch: 2026-07-24T17:53:19.650Z)
Latitude
Longitude
178.01673°
Altitude
1,251.374 km
Speed
7.233 km/s
True Right ascension
01h 55m 15s
True Declination
0° 00' 00"
Sunlit
Object was in daylight at epoch
Visualization orbit readout
Latitude
Unknown
Longitude
Unknown
Altitude
Unknown
Speed
Unknown
Apparent Right ascension
Unknown
Apparent Declination
Unknown
Sunlit
N/A
Visualization observer readout
Local Sidereal Time
13:07:08
Azimuth
Unknown
Elevation
Unknown
Doppler factor
Unknown
Orbital elements
Apogee altitude
1,265.11 km
Perigee altitude
1,242.51 km
Semi-major axis
7,631.947 km
Eccentricity
0.00148
Inclination
90.2733°
RAAN
28.8162°
Arg. of periapsis
316.5185°
True anomaly
43.5939°
Mean anomaly
43.477°
Eccentric anomaly
43.53543°
Mean motion
3.25529 °/min
Orbital period
110.59 mins
BSTAR
0.0011592
Loading maneuver chart data...
Computing Atmospheric mass density...
Loading historical data...
Loading historical data...
Loading historical data...
Loading historical data...
Loading historical data...
Loading historical data...
Loading historical data...

Documentation

Showing up to 5 results
|